Preview of NWS' New Version of Forecast
This preview is not operational and should not be used for support decisions.

Regional Weather Roundup (RWR)

Issued by National Weather Service (NWS)

                            
000
ASUS43 KMKX 201000
RWRWI 

WISCONSIN REGIONAL WEATHER ROUNDUP
NATIONAL WEATHER SERVICE MILWAUKEE/SULLIVAN WI
500 AM CDT MON MAY 20 2019

NOTE: "FAIR" INDICATES FEW OR NO CLOUDS BELOW 12,000 FEET WITH NO
SIGNIFICANT WEATHER AND/OR OBSTRUCTIONS TO VISIBILITY.

WIZ001-002-006>008-014>016-023>028-201100-
NORTHWEST WISCONSIN
  
CITY           SKY/WX    TMP DP  RH WIND       PRES   REMARKS
SUPERIOR ARPT  FAIR      31  31 100 CALM      30.04R                  
ASHLAND        FAIR      40  33  76 SW3       30.02R                  
HAYWARD        FAIR      31  30  96 S5        30.03R WCI  26          
SIREN          FAIR      33  33  99 CALM      30.05S FOG              
CUMBERLAND     FAIR      34  32  93 NW10      30.02S WCI  26          
RICE LAKE      FAIR      36  29  75 NW3       30.04R                  
CHETEK         FAIR      34  34  99 NW3       30.03R                  
LADYSMITH      CLOUDY    37  37  97 NW7       30.03R WCI  32          
EAU CLAIRE     NOT AVBL                                               
MENOMONIE      FAIR     N/A N/A N/A W7        30.05R                  
NEW RICHMOND   FAIR      34  33  99 SW3       30.07R                  
OSCEOLA        FAIR      33  33 100 SW3       30.09R                  
$$
 
WIZ003>005-009-010-017-018-201100-
NORTH CENTRAL WISCONSIN
  
CITY           SKY/WX    TMP DP  RH WIND       PRES   REMARKS
MANITOWISH WTR CLOUDY    38  38 100 NW6       29.95S WCI  33          
ARBOR VITAE    DRIZZLE   39  37  92 N9        29.93S WCI  33          
WOODRUFF       DRIZZLE   39  37  92 N9        29.93S WCI  33          
RHINELANDER    CLOUDY    41  36  82 N7        29.91R                  
EAGLE RIVER    DRIZZLE   37  37  98 N9G17     29.91R WCI  31          
LAND O LAKES   CLOUDY    38  37  95 N12G17    29.94R FOG     WCI  31  
PHILLIPS       CLOUDY    37  37 100 NW8       29.97R WCI  31          
TOMAHAWK       CLOUDY    37  36  94 NW8       29.93S WCI  31          
MEDFORD        CLOUDY    36  35  94 N14       29.95R WCI  27          
MERRILL        CLOUDY    38  38 100 NW8       29.95R WCI  32          
$$
 
WIZ029-030-035-036-043>047-201100-
CENTRAL WISCONSIN
  
CITY           SKY/WX    TMP DP  RH WIND       PRES   REMARKS
WAUSAU         NOT AVBL                                               
MOSINEE        CLOUDY    37  36  93 NW13      29.94R WCI  29          
MARSHFIELD     NOT AVBL                                               
STEVENS POINT  CLOUDY    36  36  99 NW8       29.93R WCI  30          
WAUPACA        MOCLDY    41  37  86 W6        29.92R                  
WAUTOMA        MOCLDY    39  37  92 NW10      29.94R WCI  32          
WISC RAPIDS    CLOUDY    39  35  86 NW9       29.96R WCI  33          
CAMP DOUGLAS   CLOUDY    39  39 100 NW9       29.98R WCI  33          
$$
 
WIZ011>013-019>022-031-037>040-048>050-201100-
NORTHEAST WISCONSIN
  
CITY           SKY/WX    TMP DP  RH WIND       PRES   REMARKS
ANTIGO         CLOUDY    38  37  98 NW10      29.88S WCI  31          
SHAWANO        CLOUDY    41  39  92 NW9       29.89R                  
OCONTO         CLOUDY    40  38  92 NW5       29.86R                  
STURGEON BAY   LGT RAIN  41  39  93 NW15G22   29.83R                  
GREEN BAY      CLOUDY    42  38  85 NW9       29.87R                  
MANITOWOC      LGT RAIN  41  39  93 NW12G21   29.87R                  
APPLETON       CLOUDY    39  37  93 NW9       29.87R WCI  33          
CLINTONVILLE   CLOUDY    40  36  83 NW10G16   29.89R WCI  34          
OSHKOSH        CLOUDY    41  38  89 NW8       29.89R                  
$$
 
WIZ032>034-041-042-053>061-201100-
SOUTHWEST WISCONSIN
  
CITY           SKY/WX    TMP DP  RH WIND       PRES   REMARKS
LA CROSSE      CLOUDY    42  35  76 N14       30.02R                  
SPARTA         CLOUDY    38  36  91 CALM      30.01R                  
VIROQUA        CLOUDY    38  38 100 N13       29.99R WCI  30          
BOSCOBEL       CLOUDY    42  36  79 N6        30.00R                  
PRAIRIE DU CHI CLOUDY    41  36  81 NW8       30.01R                  
PLATTEVILLE    CLOUDY    40  38  95 NW13      29.98R WCI  32          
$$

WIZ056-057-062-063-064-067-068-201100-
SOUTH CENTRAL WISCONSIN
  
CITY           SKY/WX    TMP DP  RH WIND       PRES   REMARKS
REEDSBURG      CLOUDY    39  38  98 NW7G16    29.96R WCI  34          
BARABOO/DELLS  CLOUDY    39  37  93 NW6       29.95R WCI  35          
LONE ROCK      CLOUDY    43  36  75 NW9       29.98R                  
MINERAL POINT  CLOUDY    41  41 100 NW12G17   29.96R                  
MADISON        CLOUDY    41  37  86 NW7       29.93R                  
MIDDLETON      CLOUDY    42  38  88 NW10G16   29.94R                  
WATERTOWN      CLOUDY    41  41 100 NW12G21   29.91R                  
MONROE         CLOUDY    41  36  83 NW14      29.94R                  
JANESVILLE     MOCLDY    43  37  81 NW16      29.93R                  
$$
 
WIZ051-052-058>065-066-070>072-201100-
SOUTHEAST WISCONSIN
  
CITY           SKY/WX    TMP DP  RH WIND       PRES   REMARKS
MILWAUKEE      MOCLDY    47  39  74 NW13      29.88R                  
WAUKESHA       CLOUDY    41  37  87 W15G21    29.89R                  
MILWAUKEE/TIMM FAIR      43  36  75 NW15      29.89R                  
RACINE         MOCLDY    47  40  76 NW8       29.89R                  
KENOSHA        CLOUDY    48  43  82 NW14G21   29.88R                  
FOND DU LAC    CLOUDY    41  38  89 NW12      29.90R                  
SHEBOYGAN      CLOUDY    43  38  82 NW10G17   29.87R                  
WEST BEND      CLOUDY    41  39  93 NW12      29.88R                  
JUNEAU         CLOUDY    40  38  93 NW8       29.92R WCI  35          
$$

LSZ147-162-201100-
LAKE SUPERIOR
  
STATION/POSITION TIME  TEMP    WIND        PRES    WAVE
                       AIR SEA DIR/SP/G            HT/PER
                 (UTC) (F)     (DEG/KT/KT) (MB)    (FT/S)
W MID LAKE BUOY  0850   39 36  310/  8/ 10 1015.5R   3/ 5
$$
 
LMZ867-665-643>646-201100-
LAKE MICHIGAN
  
STATION/POSITION TIME  TEMP    WIND        PRES    WAVE
                       AIR SEA DIR/SP/G            HT/PER
                 (UTC) (F)     (DEG/KT/KT) (MB)    (FT/S)
CHAMBERS ISLAND  0940          310/ 18/ 23 1008.8R
N MID LAKE BUOY  0940   39 37  330/ 14/ 16 1007.2R
NORTHPORT PIER   0940   41     330/ 12/ 15 1008.8R
KEWAUNEE LAKESHO 0930   42     320/  9/ 13 1009.2R
SHEBOYGAN LAKESH 0900   44     310/ 14/ 17 1010.5R
S MID LAKE BUOY  0940   42 39  290/  6/  8 1012.1R
KENOSHA   LAKESH 0900   48     300/ 10/ 17 1011.5
$$

TC  - TEMPERATURE IN CELSIUS
VSB - VISIBILITY IN STATUTE MILES
WCI - WIND CHILL INDEX
HX  - HEAT INDEX